Hourly Data Report for March 20, 2003

TORONTO CITY
ONTARIO

43°40'00.000" N
79°24'00.000" W
112.50 m
6158355
71508
XTO

Download Data

Hourly Data (March 2003)
Hourly Data Report for March 20, 2003
TIME
LST
Temp Definition
°C
Dew Point Definition
°C
Rel Hum Definition
%
Precip. Amount Definition
mm

Wind Dir Definition
10's deg

Wind Spd Definition
km/h
Visibility Definition
km
Stn Press Definition
kPa
Hmdx Definition


Wind Chill Definition


Weather Definition


00:00 3.4 -0.7 74   LegendMM LegendMM LegendMM 100.38     LegendNANA
01:00 3.8 0.5 79   LegendMM LegendMM LegendMM 100.35     LegendNANA
02:00 4.1 1.5 83   LegendMM LegendMM LegendMM 100.33     LegendNANA
03:00 4.0 2.5 90   LegendMM LegendMM LegendMM 100.26     LegendNANA
04:00 3.5 2.5 93   LegendMM LegendMM LegendMM 100.21     LegendNANA
05:00 3.5 2.8 95   LegendMM LegendMM LegendMM 100.23     LegendNANA
06:00 3.4 3.0 97   LegendMM LegendMM LegendMM 100.17     LegendNANA
07:00 3.4 3.0 97   LegendMM LegendMM LegendMM 100.13     LegendNANA
08:00 3.2 2.8 97   LegendMM LegendMM LegendMM 100.13     LegendNANA
09:00 3.5 2.9 96   LegendMM LegendMM LegendMM 100.14     LegendNANA
10:00 3.8 2.6 92   LegendMM LegendMM LegendMM 100.09     LegendNANA
11:00 4.7 2.9 88   LegendMM LegendMM LegendMM 100.06     LegendNANA
12:00 5.8 3.3 84   LegendMM LegendMM LegendMM 100.01     LegendNANA
13:00 6.1 3.3 82   LegendMM LegendMM LegendMM 99.95     LegendNANA
14:00 6.3 3.5 82   LegendMM LegendMM LegendMM 99.85     LegendNANA
15:00 5.7 3.2 84   LegendMM LegendMM LegendMM 99.80     LegendNANA
16:00 5.6 3.5 86   LegendMM LegendMM LegendMM 99.67     LegendNANA
17:00 5.2 3.9 91   LegendMM LegendMM LegendMM 99.61     LegendNANA
18:00 4.8 4.1 95   LegendMM LegendMM LegendMM 99.63     LegendNANA
19:00 4.7 4.3 97   LegendMM LegendMM LegendMM 99.46     LegendNANA
20:00 4.5 4.2 98   LegendMM LegendMM LegendMM 99.38     LegendNANA
21:00 3.9 3.6 98   LegendMM LegendMM LegendMM 99.30     LegendNANA
22:00 3.8 3.5 98   LegendMM LegendMM LegendMM 99.27     LegendNANA
23:00 3.8 3.5 98   LegendMM LegendMM LegendMM 99.22     LegendNANA

Notes on Data Quality.

Legend

  • E = Estimated
  • M = Missing
  • NA = Not Available*
  • [empty] = Indicates an unobserved value
Date modified: